Terminal Aerodrome Forecast
Issued by NWS

Home | Current Version | Previous Version | Text Only | Print | Product List | Glossary On
Versions: 1 2 3 4 5 6 7 8 9 10 11 12 13 14 15 16 17 18 19 20 21 22 23 24 25 26 27 28 29 30 31 32 33 34 35 36 37 38 39 40 41 42 43 44 45 46 47 48 49 50
000
FTUS43 KMKX 262323
TAFUES
TAF
KUES 262323Z 2700/2724 15006KT 4SM -SN BR OVC015
      TEMPO 2700/2702 P6SM NSW
     FM270300 14004KT 3SM BR OVC015
      TEMPO 2703/2706 2SM -FZDZ BR OVC008
     FM270800 VRB03KT 6SM BR OVC010
     FM271100 06004KT P6SM OVC015=

USA.gov is the U.S. government's official web portal to all federal, state and local government web resources and services.